Location: Pilipovskiye Korichintsy
(49.1833°N, 27.4667°E)
Time: 00:22:54
(UTC+00:00)

Lacrosse 5 - Pass Details

Date: 26 October 2020
Orbit: 714 x 725 km, 57.0° (Epoch: 30 November)

Event Time Altitude Azimuth Distance (km) Brightness Sun altitude
Rises 15:44:26 0° 269° (W) 3,115 7.3 -8.1°
Reaches altitude 10° 15:46:58 10° 277° (W) 2,196 5.8 -8.5°
Maximum altitude 15:51:41 38° 346° (NNW) 1,079 2.8 -9.2°
Drops below altitude 10° 15:56:25 10° 55° (NE) 2,200 3.8 -10.0°
Enters shadow 15:56:26 10° 56° (NE) 2,208 3.8 -10.0°
